GW3250 Weather Reports


time (UTC)temp
C
wind
direction
speed
KPH
gust
KPH
rain 1hr
cm
rain 24hr
cm
rain mn
cm
humidity
%
barometer
mb
20260507200849 12 193 1.6 1.6 0.00 0.03 0.03 45 1005.9
20260507200345 12 136 3.2 3.2 0.00 0.03 0.03 43 1005.9
20260507195841 13 231 1.6 3.2 0.00 0.03 0.03 43 1005.7
20260507195338 13 265 4.8 9.7 0.00 0.03 0.03 45 1005.7
20260507194836 14 204 1.6 3.2 0.00 0.03 0.03 44 1005.8
20260507194332 15 170 4.8 6.4 0.00 0.03 0.03 39 1006.0
20260507193828 15 14 4.8 6.4 0.00 0.03 0.03 39 1006.1
20260507193326 15 160 1.6 1.6 0.00 0.03 0.03 41 1006.2
20260507192821 14 219 1.6 1.6 0.00 0.03 0.03 40 1006.1
20260507192318 15 94 3.2 3.2 0.00 0.03 0.03 41 1005.9
20260507191815 13 55 3.2 4.8 0.00 0.03 0.03 43 1006.0
20260507191311 13 269 6.4 6.4 0.00 0.03 0.03 43 1006.0
20260507190808 12 206 0.0 0.0 0.00 0.03 0.03 47 1006.3
20260507190306 12 177 1.6 3.2 0.00 0.03 0.03 48 1006.4
20260507185804 12 244 4.8 4.8 0.00 0.03 0.03 47 1006.5
20260507185255 12 26 3.2 4.8 0.00 0.03 0.03 46 1006.7
20260507184752 12 222 4.8 4.8 0.00 0.03 0.03 44 1006.9
20260507184250 12 201 0.0 1.6 0.00 0.03 0.03 43 1006.7
20260507183747 13 238 3.2 4.8 0.00 0.03 0.03 44 1006.7
20260507183243 14 250 9.7 12.9 0.00 0.03 0.03 41 1006.6
20260507182741 15 205 4.8 6.4 0.00 0.03 0.03 42 1007.0
20260507182236 15 230 8.0 11.3 0.00 0.03 0.03 40 1006.9
20260507181734 12 213 4.8 6.4 0.00 0.03 0.03 45 1006.8
20260507181230 12 80 1.6 3.2 0.00 0.03 0.03 43 1006.7
20260507180726 12 53 1.6 3.2 0.00 0.03 0.03 46 1006.9
20260507180223 13 168 8.0 9.7 0.00 0.03 0.03 41 1007.2
20260507175719 14 228 4.8 4.8 0.00 0.03 0.03 42 1007.2
20260507175216 13 88 1.6 1.6 0.00 0.03 0.03 45 1007.0
20260507174714 14 5 1.6 3.2 0.00 0.03 0.03 45 1007.0
20260507174211 14 302 1.6 1.6 0.00 0.03 0.03 44 1006.9
20260507173709 14 224 3.2 4.8 0.00 0.03 0.03 41 1007.3
20260507173205 13 116 3.2 4.8 0.00 0.03 0.03 44 1007.2
20260507172702 13 128 3.2 3.2 0.00 0.03 0.03 46 1007.5
20260507172159 14 221 3.2 6.4 0.00 0.03 0.03 41 1007.4
20260507171658 12 82 0.0 1.6 0.00 0.03 0.03 47 1007.6
20260507171156 13 239 9.7 12.9 0.00 0.03 0.03 42 1007.4
20260507170653 13 132 1.6 3.2 0.00 0.03 0.03 44 1007.6
20260507170150 13 216 9.7 14.5 0.00 0.03 0.03 44 1007.7
20260507165646 12 215 3.2 6.4 0.00 0.03 0.03 50 1007.6
20260507165142 13 15 3.2 4.8 0.00 0.03 0.03 46 1007.9
20260507164638 13 229 3.2 4.8 0.00 0.03 0.03 51 1007.8
20260507164135 13 148 4.8 4.8 0.00 0.03 0.03 42 1007.9
20260507163627 12 201 3.2 4.8 0.00 0.03 0.03 49 1007.9
20260507163125 13 74 3.2 3.2 0.00 0.03 0.03 45 1008.1
20260507162620 12 115 4.8 9.7 0.00 0.03 0.03 47 1008.2
20260507162117 13 236 8.0 11.3 0.00 0.03 0.03 45 1008.0
20260507161613 13 254 3.2 4.8 0.00 0.03 0.03 50 1007.9
20260507161110 12 196 1.6 1.6 0.00 0.03 0.03 53 1008.1
20260507160606 12 212 4.8 6.4 0.00 0.03 0.03 48 1008.3
20260507155558 13 52 3.2 3.2 0.00 0.03 0.03 48 1008.4
20260507155055 12 116 1.6 1.6 0.00 0.03 0.03 50 1008.4
20260507154552 12 200 1.6 1.6 0.00 0.03 0.03 45 1008.6
20260507154049 11 241 3.2 3.2 0.00 0.03 0.03 54 1008.5
20260507153546 11 280 3.2 4.8 0.00 0.03 0.03 56 1008.4
20260507153042 11 144 0.0 1.6 0.00 0.03 0.03 51 1008.7
20260507152538 12 224 4.8 4.8 0.00 0.03 0.03 47 1008.8
20260507152034 12 64 6.4 9.7 0.00 0.03 0.03 48 1008.7
20260507151530 12 24 6.4 12.9 0.00 0.03 0.03 47 1008.9
20260507151028 11 237 9.7 11.3 0.00 0.03 0.03 50 1009.0
20260507150524 11 197 3.2 4.8 0.00 0.03 0.03 49 1008.9
20260507150016 11 80 1.6 1.6 0.00 0.03 0.03 50 1008.9
20260507145510 12 117 3.2 3.2 0.00 0.03 0.03 50 1008.9
20260507145008 11 135 3.2 4.8 0.00 0.03 0.03 49 1008.8
20260507144505 11 232 6.4 6.4 0.00 0.03 0.03 56 1008.8
20260507144003 11 187 3.2 4.8 0.00 0.03 0.03 58 1009.0
20260507143500 11 215 8.0 11.3 0.00 0.03 0.03 50 1008.9
20260507142956 10 196 3.2 4.8 0.00 0.03 0.03 53 1008.9
20260507142452 10 43 4.8 6.4 0.00 0.03 0.03 57 1009.0
20260507141949 10 161 0.0 1.6 0.00 0.03 0.03 51 1009.0
20260507141445 10 194 1.6 3.2 0.00 0.03 0.03 51 1009.2
20260507140942 11 150 3.2 3.2 0.00 0.03 0.03 52 1009.0
20260507140438 10 150 1.6 3.2 0.00 0.03 0.03 58 1009.2
20260507135936 10 51 3.2 3.2 0.00 0.03 0.03 55 1009.4
20260507135433 8 214 0.0 1.6 0.00 0.03 0.03 59 1009.3
20260507134930 10 245 3.2 4.8 0.00 0.03 0.03 57 1009.3
20260507134427 9 185 3.2 3.2 0.00 0.03 0.03 63 1009.3
20260507133922 9 19 4.8 4.8 0.00 0.03 0.03 57 1009.3
20260507133418 9 143 4.8 6.4 0.00 0.03 0.03 55 1009.3
20260507132912 8 213 3.2 3.2 0.00 0.03 0.03 58 1009.3
20260507132407 8 84 3.2 4.8 0.00 0.03 0.03 54 1009.6
20260507131906 8 233 4.8 6.4 0.00 0.03 0.03 57 1009.5
20260507131401 8 202 3.2 4.8 0.00 0.03 0.03 58 1009.3
20260507130858 8 141 4.8 14.5 0.00 0.03 0.03 62 1009.1
20260507130354 8 74 4.8 6.4 0.00 0.03 0.03 58 1009.1
20260507125854 8 223 4.8 4.8 0.00 0.03 0.03 60 1009.3
20260507125351 8 252 3.2 4.8 0.00 0.03 0.03 62 1009.0
20260507124849 8 50 3.2 4.8 0.00 0.03 0.03 62 1009.1
20260507124344 7 158 1.6 1.6 0.00 0.03 0.03 63 1009.1
20260507123843 7 83 0.0 1.6 0.00 0.03 0.03 62 1009.0
20260507123340 7 86 4.8 9.7 0.00 0.03 0.03 65 1009.1
20260507122836 7 175 1.6 1.6 0.00 0.03 0.03 70 1008.8
20260507122331 7 182 1.6 1.6 0.00 0.03 0.03 72 1008.8
20260507121828 6 200 1.6 1.6 0.00 0.03 0.03 71 1008.8
20260507121324 6 125 1.6 3.2 0.00 0.03 0.03 69 1009.0
20260507120820 7 104 0.0 0.0 0.13 0.03 0.03 70 1008.9
20260507120317 6 241 8.0 11.3 0.13 0.03 0.03 69 1009.0
20260507115813 6 144 0.0 1.6 0.00 0.00 0.00 72 1008.8
20260507115309 6 160 1.6 3.2 0.00 0.00 0.00 73 1008.9
20260507114804 6 174 0.0 1.6 0.00 0.00 0.00 75 1008.9
20260507114302 5 183 1.6 3.2 0.00 0.00 0.00 77 1008.7
20260507113800 5 240 4.8 4.8 0.00 0.00 0.00 76 1008.7
20260507113256 5 170 0.0 1.6 0.00 0.00 0.00 78 1008.8
20260507112754 5 121 1.6 1.6 0.00 0.00 0.00 79 1008.5
20260507112251 5 182 0.0 0.0 0.00 0.00 0.00 82 1008.6
20260507111749 5 121 1.6 1.6 0.00 0.00 0.00 83 1008.7
20260507111245 5 163 0.0 1.6 0.00 0.00 0.00 86 1008.7
20260507110741 5 160 1.6 1.6 0.00 0.00 0.00 87 1008.6
20260507110238 5 125 1.6 3.2 0.00 0.00 0.00 86 1008.2
20260507105734 5 210 4.8 6.4 0.00 0.00 0.00 88 1008.2
20260507105230 5 169 3.2 3.2 0.00 0.00 0.00 90 1008.4
20260507104728 5 175 1.6 1.6 0.00 0.00 0.00 90 1008.4
20260507104225 5 192 3.2 3.2 0.00 0.00 0.00 90 1008.3
20260507103720 5 71 1.6 1.6 0.00 0.00 0.00 90 1008.0
20260507103217 5 155 0.0 1.6 0.00 0.00 0.00 91 1007.9
20260507102713 5 187 1.6 1.6 0.00 0.00 0.00 92 1007.9
20260507102210 5 297 1.6 3.2 0.00 0.00 0.00 93 1007.9
20260507101706 5 173 1.6 1.6 0.00 0.00 0.00 94 1007.7
20260507101201 5 214 1.6 3.2 0.00 0.00 0.00 94 1007.7
20260507100659 5 234 9.7 14.5 0.00 0.00 0.00 95 1007.7
20260507100157 5 201 1.6 1.6 0.00 0.00 0.00 96 1007.7
20260507095655 5 197 3.2 3.2 0.00 0.00 0.00 97 1007.9
20260507095151 5 192 1.6 1.6 0.00 0.00 0.00 98 1007.8
20260507094648 5 193 1.6 3.2 0.00 0.00 0.00 98 1007.5
20260507094144 5 193 3.2 3.2 0.00 0.00 0.00 98 1007.7
20260507093642 5 193 1.6 1.6 0.00 0.00 0.00 98 1007.6
20260507093141 5 193 1.6 1.6 0.00 0.00 0.00 98 1007.3
20260507092637 5 193 1.6 1.6 0.00 0.00 0.00 98 1007.2
20260507092134 5 193 1.6 1.6 0.00 0.00 0.00 98 1007.2
20260507091630 5 188 1.6 1.6 0.00 0.00 0.00 98 1007.4
20260507091126 5 190 3.2 4.8 0.00 0.00 0.00 98 1007.4
20260507090622 5 182 1.6 1.6 0.00 0.00 0.00 97 1007.2
20260507090120 5 182 0.0 1.6 0.00 0.00 0.00 97 1007.5
20260507085616 6 186 3.2 3.2 0.00 0.00 0.00 97 1007.5
20260507085113 6 172 1.6 1.6 0.00 0.00 0.00 97 1007.3
20260507084610 6 177 1.6 1.6 0.00 0.00 0.00 96 1007.3
20260507084107 6 192 1.6 1.6 0.00 0.00 0.00 96 1007.3
20260507083603 6 192 1.6 1.6 0.00 0.00 0.00 96 1007.6
20260507083101 6 214 3.2 3.2 0.00 0.00 0.00 95 1007.5
20260507082556 6 197 1.6 3.2 0.00 0.00 0.00 95 1007.7
20260507082053 6 179 1.6 1.6 0.00 0.00 0.00 95 1007.6
20260507081549 6 150 1.6 1.6 0.00 0.00 0.00 95 1007.7
20260507081046 6 168 1.6 1.6 0.00 0.00 0.00 95 1008.2
20260507080541 6 123 1.6 3.2 0.00 0.00 0.00 95 1008.1
20260507080033 6 129 6.4 6.4 0.00 0.00 0.00 95 1008.0
20260507075528 7 164 1.6 1.6 0.00 0.00 0.00 95 1008.2
20260507075024 7 200 1.6 3.2 0.00 0.00 0.00 95 1008.0
20260507074521 7 205 1.6 3.2 0.00 0.00 0.00 95 1007.9
20260507074020 7 332 6.4 9.7 0.00 0.00 0.00 95 1008.0
20260507073516 7 173 1.6 1.6 0.00 0.00 0.00 96 1008.0
20260507073012 7 205 0.0 0.0 0.00 0.00 0.00 96 1008.2
20260507072510 7 205 1.6 1.6 0.00 0.00 0.00 95 1008.1
20260507072007 6 206 1.6 1.6 0.00 0.00 0.00 95 1007.9
20260507071504 6 203 1.6 1.6 0.00 0.00 0.00 95 1008.2
20260507071001 7 215 3.2 3.2 0.00 0.00 0.00 96 1008.1
20260507070458 6 215 1.6 1.6 0.00 0.00 0.00 95 1008.2
20260507065954 6 216 3.2 4.8 0.00 0.00 0.00 95 1008.0
20260507065451 6 214 1.6 1.6 0.00 0.00 0.00 96 1008.0
20260507064948 6 214 1.6 1.6 0.00 0.00 0.00 96 1007.9
20260507064447 7 214 3.2 3.2 0.00 0.00 0.00 96 1008.4
20260507063944 6 205 0.0 0.0 0.00 0.00 0.00 97 1007.7
20260507063441 7 204 1.6 1.6 0.00 0.00 0.00 97 1007.9
20260507062938 7 204 3.2 3.2 0.00 0.00 0.00 97 1007.6
20260507062435 7 184 3.2 3.2 0.00 0.00 0.00 97 1007.6
20260507061932 7 194 1.6 1.6 0.00 0.00 0.00 97 1007.7
20260507061430 7 200 3.2 3.2 0.00 0.00 0.00 97 1007.7
20260507060928 7 194 1.6 1.6 0.00 0.00 0.00 97 1007.8
20260507060425 7 194 1.6 1.6 0.00 0.00 0.00 97 1007.4
20260507055921 7 172 1.6 1.6 0.00 0.00 0.00 96 1007.8
20260507055416 7 193 3.2 3.2 0.00 0.00 0.00 96 1007.6
20260507054908 7 190 1.6 1.6 0.00 0.00 0.00 96 1007.5
20260507054404 7 160 1.6 1.6 0.00 0.00 0.00 95 1007.5
20260507053901 7 201 3.2 3.2 0.00 0.00 0.00 96 1006.8
20260507053359 7 176 1.6 1.6 0.00 0.00 0.00 96 1007.4
20260507052858 7 198 1.6 3.2 0.00 0.00 0.00 96 1007.0
20260507052354 7 156 1.6 1.6 0.00 0.00 0.00 96 1007.0
20260507051852 7 170 1.6 3.2 0.00 0.00 0.00 96 1007.0
20260507051349 7 178 1.6 3.2 0.00 0.00 0.00 95 1007.5
20260507050846 7 180 0.0 1.6 0.00 0.00 0.00 95 1007.2
20260507050342 7 144 1.6 1.6 0.00 0.00 0.00 94 1007.2
20260507045839 7 198 0.0 0.0 0.00 0.00 0.00 94 1007.8
20260507045336 7 213 0.0 0.0 0.00 0.00 0.00 94 1007.6
20260507044833 7 209 0.0 1.6 0.00 0.00 0.00 93 1007.9
20260507044329 7 189 1.6 1.6 0.00 0.00 0.00 93 1007.6
20260507043825 7 206 3.2 3.2 0.00 0.00 0.00 93 1007.9
20260507043322 7 199 1.6 1.6 0.00 0.00 0.00 94 1007.6
20260507042818 7 198 0.0 0.0 0.00 0.00 0.00 93 1007.7
20260507042314 7 199 0.0 0.0 0.00 0.00 0.00 93 1007.8
20260507041811 7 199 3.2 3.2 0.00 0.00 0.00 93 1008.0
20260507041308 7 173 0.0 0.0 0.00 0.00 0.00 93 1007.9
20260507040805 7 239 4.8 4.8 0.00 0.00 0.00 92 1007.9
20260507040301 7 218 1.6 3.2 0.00 0.00 0.00 93 1008.0
20260507035757 7 198 0.0 0.0 0.00 0.58 0.58 93 1007.9
20260507035252 7 193 3.2 4.8 0.00 0.58 0.58 92 1007.7
20260507034750 7 196 3.2 3.2 0.00 0.58 0.58 92 1007.5
20260507034247 7 194 1.6 1.6 0.00 0.58 0.58 92 1007.0
20260507033746 7 165 1.6 1.6 0.00 0.58 0.58 92 1007.7
20260507033242 7 190 3.2 3.2 0.00 0.58 0.58 93 1007.3
20260507032740 7 210 4.8 4.8 0.00 0.58 0.58 92 1007.2
20260507032236 8 195 1.6 1.6 0.00 0.58 0.58 92 1007.3
20260507031732 8 311 3.2 4.8 0.00 0.58 0.58 92 1007.4
20260507031229 8 188 3.2 4.8 0.00 0.58 0.58 92 1007.5
20260507030726 8 193 0.0 0.0 0.00 0.58 0.58 93 1007.5
20260507030224 8 178 1.6 1.6 0.00 0.58 0.58 94 1007.2
20260507025720 8 186 3.2 3.2 0.00 0.58 0.58 94 1007.2
20260507025217 8 196 1.6 1.6 0.00 0.58 0.58 95 1007.2
20260507024716 8 178 1.6 1.6 0.00 0.58 0.58 94 1007.7
20260507024213 8 210 3.2 3.2 0.00 0.58 0.58 94 1007.6
20260507023708 8 217 4.8 6.4 0.00 0.58 0.58 95 1007.5
20260507023205 8 186 3.2 3.2 0.00 0.58 0.58 95 1007.5
20260507022702 8 235 3.2 4.8 0.00 0.58 0.58 95 1007.8
20260507022158 8 236 4.8 4.8 0.00 0.58 0.58 94 1007.7
20260507021655 8 205 3.2 3.2 0.00 0.58 0.58 94 1007.5
20260507021150 8 203 1.6 1.6 0.00 0.58 0.58 95 1007.7
20260507020649 8 203 1.6 3.2 0.00 0.58 0.58 95 1008.2
20260507020144 8 130 3.2 4.8 0.00 0.58 0.58 95 1008.1
20260507015643 8 198 1.6 3.2 0.00 0.58 0.58 95 1008.1
20260507015140 8 219 3.2 3.2 0.00 0.58 0.58 95 1008.0
20260507014636 8 199 3.2 3.2 0.00 0.58 0.58 95 1007.9
20260507014132 8 215 3.2 4.8 0.00 0.58 0.58 95 1007.6
20260507013629 8 224 1.6 1.6 0.00 0.58 0.58 95 1007.8
20260507013126 8 210 1.6 1.6 0.00 0.58 0.58 94 1007.7
20260507012624 8 128 1.6 3.2 0.00 0.58 0.58 94 1007.6
20260507012119 8 225 1.6 3.2 0.00 0.58 0.58 94 1007.6
20260507011618 8 129 6.4 11.3 0.00 0.58 0.58 94 1007.7
20260507011113 9 222 0.0 0.0 0.00 0.58 0.58 94 1007.8
20260507010608 9 235 4.8 4.8 0.00 0.58 0.58 94 1007.8
20260507010104 8 313 3.2 4.8 0.00 0.58 0.58 93 1007.5
20260507005602 9 214 4.8 4.8 0.00 0.58 0.58 94 1007.3
20260507005058 9 210 3.2 6.4 0.00 0.58 0.58 93 1007.0
20260507004555 9 217 0.0 1.6 0.00 0.58 0.58 95 1007.2
20260507004053 9 246 9.7 11.3 0.00 0.58 0.58 94 1007.4
20260507003548 9 43 3.2 3.2 0.00 0.58 0.58 95 1007.4
20260507003043 10 213 3.2 4.8 0.00 0.58 0.58 95 1007.3
20260507002540 10 187 1.6 3.2 0.00 0.58 0.58 95 1007.0
20260507002036 10 218 6.4 6.4 0.00 0.58 0.58 94 1006.7
20260507001533 10 194 1.6 3.2 0.00 0.58 0.58 95 1006.6
20260507001031 10 184 0.0 1.6 0.00 0.58 0.58 94 1006.6
20260507000526 10 164 0.0 1.6 0.00 0.58 0.58 94 1006.6
20260507000016 10 202 1.6 3.2 0.00 0.58 0.58 93 1006.6
20260506235514 10 199 1.6 1.6 0.00 0.58 0.58 93 1006.8
20260506235010 10 194 6.4 6.4 0.00 0.58 0.58 93 1007.0
20260506234507 10 234 3.2 4.8 0.00 0.58 0.58 93 1006.5
20260506233959 10 238 0.0 1.6 0.00 0.58 0.58 92 1006.5
20260506233455 10 210 1.6 3.2 0.00 0.58 0.58 91 1006.4
20260506232951 10 201 4.8 4.8 0.00 0.58 0.58 92 1006.0
20260506232448 10 194 6.4 6.4 0.00 0.58 0.58 93 1006.0
20260506231944 10 30 3.2 3.2 0.00 0.58 0.58 93 1005.8
20260506231441 11 177 0.0 1.6 0.00 0.58 0.58 95 1005.9
20260506230938 11 114 3.2 4.8 0.00 0.58 0.58 96 1005.9
20260506230435 12 158 1.6 3.2 0.00 0.58 0.58 97 1005.4
20260506225931 12 170 0.0 1.6 0.00 0.58 0.58 96 1005.5
20260506225429 12 183 1.6 3.2 0.00 0.58 0.58 96 1005.4
20260506224926 12 198 1.6 3.2 0.00 0.58 0.58 94 1004.8
20260506224423 12 197 1.6 1.6 0.00 0.58 0.58 94 1005.0
20260506223919 13 155 1.6 1.6 0.00 0.58 0.58 95 1004.9
20260506223415 14 191 3.2 3.2 0.00 0.58 0.58 97 1004.7
20260506222912 15 129 3.2 4.8 0.00 0.58 0.58 98 1004.4
20260506222409 15 183 1.6 3.2 0.00 0.58 0.58 99 1004.2
20260506221906 15 203 1.6 3.2 0.00 0.58 0.58 99 1004.3
20260506221403 15 202 0.0 0.0 0.00 0.58 0.58 98 1003.8
20260506220900 16 164 0.0 1.6 0.00 0.58 0.58 98 1003.6
20260506220356 16 165 1.6 1.6 0.00 0.58 0.58 98 1003.7
20260506215853 16 165 0.0 0.0 0.00 0.58 0.58 97 1003.8
20260506215348 16 164 0.0 0.0 0.00 0.58 0.58 97 1003.6
20260506214844 16 159 1.6 3.2 0.00 0.58 0.58 97 1003.5
20260506214341 16 163 1.6 3.2 0.00 0.58 0.58 96 1003.5
20260506213839 16 158 0.0 0.0 0.00 0.58 0.58 96 1003.4
20260506213336 16 155 1.6 1.6 0.00 0.58 0.58 97 1003.7
20260506212834 16 155 0.0 0.0 0.00 0.58 0.58 99 1003.4
20260506212329 15 135 0.0 1.6 0.00 0.58 0.58 99 1003.6
20260506211824 15 165 1.6 3.2 0.00 0.58 0.58 99 1003.5
20260506211321 15 156 1.6 1.6 0.00 0.58 0.58 99 1003.7
20260506210818 15 134 1.6 1.6 0.00 0.58 0.58 99 1003.6
20260506210315 15 338 0.0 1.6 0.00 0.58 0.58 99 1003.4
20260506205812 16 210 1.6 3.2 0.00 0.58 0.58 98 1003.2
20260506205308 16 210 1.6 1.6 0.00 0.58 0.58 97 1003.4
20260506204804 16 210 3.2 3.2 0.00 0.58 0.58 97 1003.3
20260506204302 16 225 4.8 6.4 0.00 0.58 0.58 97 1003.4
20260506203759 16 205 3.2 4.8 0.00 0.58 0.58 97 1003.4
20260506203251 16 204 3.2 3.2 0.00 0.58 0.58 96 1003.2
20260506202748 16 207 3.2 3.2 0.00 0.58 0.58 98 1003.4
20260506202245 15 215 3.2 3.2 0.00 0.58 0.58 97 1003.3
20260506201742 15 135 3.2 3.2 0.00 0.58 0.58 99 1003.5
20260506201238 15 215 1.6 3.2 0.00 0.58 0.58 99 1003.3